Flag for Germany Weather past 2 weeks in Friesoythe, Lower Saxony, Germany

Now
50 °F

Fog.


Feels Like: 48 °F
Forecast: 48 / 57 °F
Wind: 5 mph from Southwest

Location: Meppen-Mil

Current Time: Oct 23, 2014 at 10:06:20 AM

Latest Report: Oct 23, 2014 at 9:20 AM


Visibility: 3 mi

Pressure: 30.15 "Hg

Humidity: 88%

Dew point: 46 °F

Location of FriesoytheLocation

Historic Weather in Friesoythe — Graph

°F

Friesoythe temperature yesterday

Maximum temperature yesterday: 52 °F (at 1:20 PM)
Minimum temperature yesterday: 46 °F (at 12:20 AM)
Average temperature yesterday: 49 °F

Past Weeks' High & Low Weather Summary

 TemperatureHumidityPressure
High72 °F (Oct 19, 1:20 PM)100% (Oct 10, 11:20 PM)30.15 "Hg (Oct 10, 11:20 PM)
Low43 °F (Oct 11, 5:20 AM)56% (Oct 14, 1:20 PM)29.39 "Hg (Oct 21, 4:20 PM)
Average56 °F84%29.81 "Hg
* Reported Oct 8 8:20 AM — Oct 23 8:20 AM, Friesoythe, Weather by CustomWeather, © 2014

Note: Actual official high and low records may vary slightly from our data, if they occured in-between our weather recording intervals... More about our weather records

Advertising

Friesoythe weather history for previous 24 hours

 ConditionsComfort  
Time TempWeatherWind HumidityBarometerVisibility
8:20 AM
Oct 23
48 °FFog.5 mph94%30.15 "Hg2 mi
7:20 AM48 °FPassing clouds.6 mph94%30.15 "Hg2 mi
6:20 AM48 °FPassing clouds.3 mph87%30.12 "HgN/A
5:20 AM46 °FCool.5 mph87%30.12 "HgN/A
4:20 AM46 °FCool.3 mph87%30.12 "HgN/A
3:20 AM46 °FCool.5 mph87%30.12 "HgN/A
2:20 AM45 °FQuite cool.5 mph93%30.12 "HgN/A
1:20 AM46 °FCool.5 mph87%30.12 "HgN/A
12:20 AM48 °FCool.6 mph82%30.12 "HgN/A
11:20 PM
Oct 22
48 °FCool.5 mph82%30.12 "HgN/A
10:20 PM50 °FCool.5 mph71%30.12 "HgN/A
9:20 PM50 °FCool.5 mph71%30.09 "HgN/A
8:20 PM50 °FCool.6 mph71%30.07 "HgN/A
7:20 PM50 °FCool.6 mph67%30.07 "HgN/A
6:20 PM52 °FCool.8 mph62%30.04 "HgN/A
5:20 PM52 °FCool.8 mph67%30.01 "HgN/A
4:20 PM52 °FPartly sunny.7 mph67%30.01 "HgN/A
3:20 PM52 °FPartly sunny.7 mph62%29.98 "HgN/A
2:20 PM52 °FPartly sunny.7 mph72%29.95 "HgN/A
1:20 PM52 °FPartly sunny.13 mph62%29.92 "HgN/A
12:20 PM50 °FPartly sunny.10 mph76%29.92 "HgN/A
11:20 AM48 °FLight rain. Partly sunny.9 mph82%29.89 "HgN/A
10:20 AM48 °FPartly sunny.8 mph82%29.86 "HgN/A
Weather by CustomWeather, © 2014

See weather overviewHow to use our weather pages